Date String (YYYY-MM-DD hh:mm:ss) UTC,Instrument flags,Ambient pressure (hPa),Sample flow (lpm),Bypass flow (lpm),Sample temperature (°C),Ambient temperature (°C),ASC tube jacket temperature (°C),LED temperature (°C),Box temperature (°C),Sample RH (%),Span deviation,Mass concentration (μg/m³),Mass concentration (μg/m³),Mass concentration (μg/m³)
DateTimeUTC,F1_M11,P_M11,Q1_M11,Q2_M11,T1_M11,T2_M11,T3_M11,T4_M11,T5_M11,U1_M11,ZSPAN_M11,X2_M11,X0_M11,X1_M11
2022-03-20 04:00:00,,0822.3,5.00,0.00,26.4,25.5,00.0,35.5,28.2,08.6,0000.0,0005.00,0011.44,0003.34
2022-03-20 04:01:00,,0822.3,4.99,0.00,26.4,25.5,00.0,35.5,28.2,08.6,0000.0,0004.99,0011.78,0003.35
2022-03-20 04:02:00,,0822.3,5.02,0.00,26.4,25.5,00.0,35.5,28.2,08.5,0000.0,0004.98,0011.61,0003.35
2022-03-20 04:03:00,,0822.3,4.99,0.00,26.4,25.5,00.0,35.5,28.1,08.5,0000.0,0005.03,0011.68,0003.37
2022-03-20 04:04:00,,0822.3,5.00,0.00,26.4,25.5,00.0,35.5,28.1,08.5,0000.0,0005.00,0011.68,0003.38
2022-03-20 04:05:00,,0822.3,5.01,0.00,26.4,25.4,00.0,35.5,28.1,08.5,0000.0,0005.12,0012.10,0003.39
2022-03-20 04:06:00,,0822.4,4.99,0.00,26.4,25.4,00.0,35.5,28.1,08.5,0000.0,0005.15,0012.29,0003.39
2022-03-20 04:07:00,,0822.3,5.02,0.00,26.4,25.4,00.0,35.5,28.1,08.6,0000.0,0005.16,0012.25,0003.41
2022-03-20 04:08:00,,0822.3,4.99,0.00,26.4,25.4,00.0,35.5,28.1,08.6,0000.0,0005.19,0011.95,0003.42
2022-03-20 04:09:00,,0822.3,5.01,0.00,26.4,25.4,00.0,35.5,28.1,08.4,0000.0,0005.18,0011.59,0003.43
2022-03-20 04:10:00,,0822.3,4.99,0.00,26.4,25.4,00.0,35.4,28.1,08.3,0000.0,0005.10,0011.45,0003.42
2022-03-20 04:11:00,,0822.3,4.99,0.00,26.4,25.4,00.0,35.4,28.1,08.3,0000.0,0005.10,0011.84,0003.42
2022-03-20 04:12:00,,0822.3,5.01,0.00,26.4,25.4,00.0,35.4,28.1,08.6,0000.0,0005.09,0011.44,0003.42
2022-03-20 04:13:00,,0822.3,4.99,0.00,26.3,25.4,00.0,35.4,28.0,08.7,0000.0,0005.09,0011.27,0003.43
2022-03-20 04:14:00,,0822.3,5.01,0.00,26.3,25.3,00.0,35.4,28.0,08.9,0000.0,0005.04,0011.11,0003.42
2022-03-20 04:15:00,,0822.3,4.99,0.00,26.3,25.3,00.0,35.4,28.0,09.0,0000.0,0005.02,0011.01,0003.42
2022-03-20 04:16:00,,0822.3,4.99,0.00,26.3,25.3,00.0,35.4,28.0,08.6,0000.0,0004.97,0010.75,0003.41
2022-03-20 04:17:00,,0822.3,5.00,0.00,26.3,25.3,00.0,35.4,28.0,08.8,0000.0,0004.95,0010.99,0003.41
2022-03-20 04:18:00,,0822.2,5.00,0.00,26.3,25.3,00.0,35.4,28.0,08.7,0000.0,0004.95,0011.54,0003.41
2022-03-20 04:19:00,,0822.2,5.00,0.00,26.3,25.3,00.0,35.4,28.0,08.3,0000.0,0004.90,0011.37,0003.40
2022-03-20 04:20:00,,0822.2,5.00,0.00,26.3,25.3,00.0,35.4,28.0,08.3,0000.0,0004.88,0011.43,0003.39
2022-03-20 04:21:00,,0822.2,5.01,0.00,26.3,25.3,00.0,35.4,28.0,08.3,0000.0,0004.93,0011.58,0003.40
2022-03-20 04:22:00,,0822.3,4.98,0.00,26.3,25.3,00.0,35.4,28.0,08.3,0000.0,0004.94,0011.14,0003.41
2022-03-20 04:23:00,,0822.3,5.01,0.00,26.3,25.3,00.0,35.4,28.0,08.5,0000.0,0004.95,0011.44,0003.41
2022-03-20 04:24:00,,0822.3,4.99,0.00,26.3,25.3,00.0,35.3,28.0,08.7,0000.0,0004.92,0011.92,0003.39
2022-03-20 04:25:00,,0822.2,4.99,0.00,26.2,25.2,00.0,35.3,28.0,08.7,0000.0,0004.99,0012.08,0003.38
2022-03-20 04:26:00,,0822.2,5.01,0.00,26.2,25.2,00.0,35.3,27.9,08.4,0000.0,0005.04,0012.14,0003.38
2022-03-20 04:27:00,,0822.2,4.98,0.00,26.2,25.2,00.0,35.3,27.9,08.4,0000.0,0005.01,0012.18,0003.37
2022-03-20 04:28:00,,0822.2,5.02,0.00,26.2,25.2,00.0,35.3,27.9,08.3,0000.0,0004.92,0011.76,0003.35
2022-03-20 04:29:00,,0822.2,4.98,0.00,26.2,25.2,00.0,35.3,27.9,08.1,0000.0,0004.91,0011.39,0003.35
2022-03-20 04:30:00,,0822.2,5.01,0.00,26.2,25.2,00.0,35.3,27.9,08.2,0000.0,0004.96,0011.59,0003.35
2022-03-20 04:31:00,,0822.3,4.99,0.00,26.2,25.2,00.0,35.3,27.9,08.1,0000.0,0004.97,0011.61,0003.36
2022-03-20 04:32:00,,0822.3,5.01,0.00,26.2,25.2,00.0,35.3,27.9,08.1,0000.0,0005.00,0011.71,0003.35
2022-03-20 04:33:00,,0822.3,5.01,0.00,26.2,25.2,00.0,35.3,27.9,08.2,0000.0,0005.02,0011.76,0003.34
2022-03-20 04:34:00,,0822.3,5.00,0.00,26.2,25.2,00.0,35.2,27.9,08.4,0000.0,0005.05,0011.51,0003.35
2022-03-20 04:35:00,,0822.3,5.00,0.00,26.2,25.2,00.0,35.2,27.8,08.5,0000.0,0005.09,0011.33,0003.36
2022-03-20 04:36:00,,0822.3,5.00,0.00,26.1,25.2,00.0,35.2,27.8,08.6,0000.0,0005.13,0011.50,0003.38
2022-03-20 04:37:00,,0822.3,4.99,0.00,26.1,25.2,00.0,35.2,27.8,08.6,0000.0,0005.15,0011.61,0003.38
2022-03-20 04:38:00,,0822.3,4.99,0.00,26.1,25.1,00.0,35.2,27.8,08.7,0000.0,0005.21,0011.66,0003.40
2022-03-20 04:39:00,,0822.3,4.99,0.00,26.1,25.1,00.0,35.2,27.8,08.6,0000.0,0005.25,0011.58,0003.43
2022-03-20 04:40:00,,0822.3,5.01,0.00,26.1,25.1,00.0,35.2,27.8,08.4,0000.0,0005.26,0011.48,0003.44
2022-03-20 04:41:00,,0822.3,4.99,0.00,26.1,25.1,00.0,35.2,27.8,08.2,0000.0,0005.27,0011.45,0003.44
2022-03-20 04:42:00,,0822.2,4.99,0.00,26.1,25.1,00.0,35.2,27.8,08.2,0000.0,0005.27,0011.46,0003.43
2022-03-20 04:43:00,,0822.2,5.02,0.00,26.1,25.1,00.0,35.2,27.8,08.2,0000.1,0005.30,0011.54,0003.43
2022-03-20 04:44:00,,0822.2,4.99,0.00,26.1,25.1,00.0,35.2,27.8,08.3,0002.2,0005.32,0011.53,0003.43
2022-03-20 04:45:00,,0822.2,4.99,0.00,26.1,25.1,00.0,35.2,27.7,08.7,0000.2,0005.33,0011.71,0003.42
2022-03-20 04:46:00,,0822.2,5.00,0.00,26.1,25.1,00.0,35.2,27.8,08.6,0000.0,0005.32,0011.61,0003.41
2022-03-20 04:47:00,,0822.2,5.00,0.00,26.0,25.0,00.0,35.1,27.7,08.5,0000.0,0005.25,0011.41,0003.40
2022-03-20 04:48:00,,0822.2,4.99,0.00,26.0,25.0,00.0,35.1,27.7,08.6,0000.3,0005.17,0011.10,0003.40
2022-03-20 04:49:00,,0822.2,5.01,0.00,26.0,25.0,00.0,35.1,27.7,08.6,0000.2,0005.15,0011.07,0003.40
2022-03-20 04:50:00,,0822.2,4.99,0.00,26.0,25.0,00.0,35.1,27.7,08.5,0000.0,0005.20,0011.19,0003.37
2022-03-20 04:51:00,,0822.2,5.01,0.00,26.0,25.0,00.0,35.1,27.7,08.5,0000.0,0005.22,0011.22,0003.37
2022-03-20 04:52:00,,0822.2,5.01,0.00,26.0,25.0,00.0,35.1,27.7,08.5,0000.0,0005.18,0011.07,0003.36
2022-03-20 04:53:00,,0822.1,4.99,0.00,26.0,25.0,00.0,35.1,27.7,08.6,0000.0,0005.16,0011.17,0003.36
2022-03-20 04:54:00,,0822.1,5.00,0.00,26.0,24.9,00.0,35.1,27.7,08.7,0000.0,0005.12,0011.28,0003.35
2022-03-20 04:55:00,,0822.1,5.01,0.00,26.0,24.9,00.0,35.1,27.6,08.5,0000.0,0005.06,0012.25,0003.33
2022-03-20 04:56:00,,0822.1,4.99,0.00,25.9,24.9,00.0,35.0,27.6,08.4,0000.0,0005.03,0012.14,0003.33
2022-03-20 04:57:00,,0822.1,4.99,0.00,25.9,24.9,00.0,35.0,27.6,08.4,0000.0,0004.99,0011.92,0003.33
2022-03-20 04:58:00,,0822.1,5.01,0.00,25.9,24.9,00.0,35.0,27.6,08.4,0000.0,0004.95,0011.77,0003.32
2022-03-20 04:59:00,,0822.1,4.99,0.00,25.9,24.9,00.0,35.0,27.5,08.4,0000.0,0004.94,0011.78,0003.32
